FW2979 Weather Reports


Display with metric or nautical units.
time (UTC)temp
F
wind
direction
speed
MPH
gust
MPH
rain 1hr
in
rain 24hr
in
rain mn
in
humidity
%
barometer
mb
20260506110819 55 260 7.0 14.0 0.00 0.00 0.00 62 814.2
20260506110709 55 276 8.0 12.0 0.00 0.00 0.00 59 814.2
20260506110559 55 266 8.0 13.0 0.00 0.00 0.00 62 814.2
20260506110449 55 262 4.0 8.0 0.00 0.00 0.00 63 814.2
20260506110339 55 239 7.0 13.0 0.00 0.00 0.00 62 814.2
20260506110229 55 256 6.0 15.0 0.00 0.00 0.00 63 814.2
20260506110016 55 241 7.0 16.0 0.00 0.00 0.00 62 814.2
20260506105858 55 279 7.0 16.0 0.00 0.00 0.00 62 814.2
20260506105642 55 254 8.0 15.0 0.00 0.00 0.00 62 814.2
20260506105529 55 264 4.0 6.0 0.00 0.00 0.00 64 814.2
20260506105418 54 316 5.0 10.0 0.00 0.00 0.00 65 814.2
20260506105309 54 62 4.0 15.0 0.00 0.00 0.00 65 814.2
20260506104939 54 216 8.0 13.0 0.00 0.00 0.00 63 814.2
20260506104719 54 288 5.0 9.0 0.00 0.00 0.00 66 814.2
20260506104459 54 253 5.0 11.0 0.00 0.00 0.00 66 814.2
20260506104238 54 286 6.0 13.0 0.00 0.00 0.00 65 814.2
20260506104018 53 276 4.0 10.0 0.00 0.00 0.00 72 814.2
20260506103759 52 320 3.0 8.0 0.00 0.00 0.00 69 814.3
20260506103539 51 220 2.0 4.0 0.00 0.00 0.00 71 814.3
20260506103428 51 206 3.0 7.0 0.00 0.00 0.00 71 814.2
20260506103318 52 230 3.0 7.0 0.00 0.00 0.00 68 814.2
20260506103209 52 239 6.0 11.0 0.00 0.00 0.00 70 814.3
20260506103102 52 232 4.0 8.0 0.00 0.00 0.00 70 814.3
20260506102839 51 277 4.0 8.0 0.00 0.00 0.00 72 814.3
20260506102729 51 90 2.0 6.0 0.00 0.00 0.00 72 814.3
20260506102618 51 181 1.0 4.0 0.00 0.00 0.00 72 814.3
20260506102358 51 272 2.0 5.0 0.00 0.00 0.00 72 814.3
20260506102248 51 283 2.0 4.0 0.00 0.00 0.00 72 814.3
20260506102028 51 195 2.0 4.0 0.00 0.00 0.00 72 814.3
20260506101918 51 195 3.0 6.0 0.00 0.00 0.00 72 814.2
20260506101808 51 222 4.0 7.0 0.00 0.00 0.00 72 814.3
20260506101658 51 220 4.0 6.0 0.00 0.00 0.00 72 814.3
20260506101549 51 258 5.0 8.0 0.00 0.00 0.00 71 814.3
20260506101438 51 258 4.0 7.0 0.00 0.00 0.00 71 814.3
20260506101329 51 287 3.0 6.0 0.00 0.00 0.00 72 814.3
20260506101219 51 138 1.0 4.0 0.00 0.00 0.00 72 814.3
20260506101109 51 223 2.0 4.0 0.00 0.00 0.00 72 814.3
20260506100958 51 215 2.0 5.0 0.00 0.00 0.00 71 814.3
20260506100848 51 197 2.0 2.0 0.00 0.00 0.00 71 814.2
20260506100628 51 212 2.0 4.0 0.00 0.00 0.00 68 814.3
20260506100519 52 191 3.0 4.0 0.00 0.00 0.00 69 814.3
20260506100408 52 204 3.0 6.0 0.00 0.00 0.00 67 814.3
20260506100258 52 212 4.0 6.0 0.00 0.00 0.00 69 814.3
20260506100150 52 245 4.0 6.0 0.00 0.00 0.00 70 814.3
20260506095930 52 267 4.0 7.0 0.00 0.00 0.00 72 814.3
20260506095820 51 271 4.0 8.0 0.00 0.00 0.00 72 814.3
20260506095708 51 214 5.0 8.0 0.00 0.00 0.00 72 814.3
20260506095455 51 215 5.0 10.0 0.00 0.00 0.00 69 814.3
20260506095235 51 282 3.0 9.0 0.00 0.00 0.00 70 814.3
20260506095119 52 222 3.0 7.0 0.00 0.00 0.00 69 814.3
20260506095009 52 241 6.0 12.0 0.00 0.00 0.00 69 814.3
20260506094859 53 247 8.0 13.0 0.00 0.00 0.00 67 814.3
20260506094749 53 248 7.0 11.0 0.00 0.00 0.00 68 814.3
20260506094528 54 216 6.0 9.0 0.00 0.00 0.00 64 814.3
20260506094419 55 244 5.0 10.0 0.00 0.00 0.00 65 814.3
20260506094308 55 245 4.0 8.0 0.00 0.00 0.00 65 814.3
20260506094159 55 270 4.0 11.0 0.00 0.00 0.00 64 814.3
20260506094048 55 301 5.0 10.0 0.00 0.00 0.00 65 814.3
20260506093938 54 256 4.0 7.0 0.00 0.00 0.00 68 814.3
20260506093828 53 298 4.0 9.0 0.00 0.00 0.00 68 814.3
20260506093719 53 241 4.0 7.0 0.00 0.00 0.00 66 814.3
20260506093609 53 240 2.0 6.0 0.00 0.00 0.00 63 814.3
20260506093348 53 245 3.0 7.0 0.00 0.00 0.00 66 814.3
20260506093239 53 305 3.0 8.0 0.00 0.00 0.00 68 814.3
20260506093128 53 233 3.0 13.0 0.00 0.00 0.00 66 814.3
20260506093019 52 174 2.0 6.0 0.00 0.00 0.00 66 814.3
20260506092759 51 211 3.0 7.0 0.00 0.00 0.00 74 814.3
20260506092648 51 203 3.0 6.0 0.00 0.00 0.00 74 814.5
20260506092538 50 229 4.0 7.0 0.00 0.00 0.00 74 814.3
20260506092429 49 210 4.0 6.0 0.00 0.00 0.00 77 814.3
20260506092319 49 205 4.0 6.0 0.00 0.00 0.00 76 814.3
20260506092208 48 186 5.0 6.0 0.00 0.00 0.00 78 814.3
20260506092059 48 173 5.0 7.0 0.00 0.00 0.00 78 814.3
20260506091838 48 177 5.0 5.0 0.00 0.00 0.00 76 814.5
20260506091728 49 185 5.0 6.0 0.00 0.00 0.00 77 814.3
20260506091618 49 198 3.0 5.0 0.00 0.00 0.00 76 814.3
20260506091508 49 193 3.0 5.0 0.00 0.00 0.00 76 814.3
20260506091358 49 214 4.0 7.0 0.00 0.00 0.00 76 814.3
20260506091248 49 225 2.0 8.0 0.00 0.00 0.00 76 814.3
20260506091029 49 236 5.0 7.0 0.00 0.00 0.00 75 814.3
20260506090918 49 243 5.0 7.0 0.00 0.00 0.00 76 814.3
20260506090808 49 236 4.0 6.0 0.00 0.00 0.00 75 814.3
20260506090658 49 248 4.0 6.0 0.00 0.00 0.00 75 814.3
20260506090438 49 267 3.0 4.0 0.00 0.00 0.00 75 814.3
20260506090329 49 245 1.0 9.0 0.00 0.00 0.00 75 814.3
20260506090108 49 228 2.0 4.0 0.00 0.00 0.00 75 814.2
20260506085959 49 225 4.0 5.0 0.00 0.00 0.00 75 814.3
20260506085739 49 221 4.0 5.0 0.00 0.00 0.00 74 814.2
20260506085628 49 235 4.0 6.0 0.00 0.00 0.00 74 814.2
20260506085518 49 224 5.0 8.0 0.00 0.00 0.00 73 814.2
20260506085408 50 212 6.0 8.0 0.00 0.00 0.00 74 814.2
20260506085258 50 219 5.0 8.0 0.00 0.00 0.00 74 814.3
20260506085148 50 248 3.0 5.0 0.00 0.00 0.00 72 814.3
20260506085038 50 235 4.0 5.0 0.00 0.00 0.00 72 814.3
20260506084928 50 259 3.0 6.0 0.00 0.00 0.00 72 814.3
20260506084818 50 256 4.0 5.0 0.00 0.00 0.00 71 814.3
20260506084708 51 266 4.0 6.0 0.00 0.00 0.00 72 814.3
20260506084559 51 268 3.0 5.0 0.00 0.00 0.00 70 814.3
20260506084339 51 280 4.0 6.0 0.00 0.00 0.00 70 814.3
20260506084119 51 186 2.0 4.0 0.00 0.00 0.00 71 814.3
20260506084008 51 250 2.0 4.0 0.00 0.00 0.00 69 814.3
20260506083858 51 209 2.0 4.0 0.00 0.00 0.00 69 814.3
20260506083748 51 281 4.0 6.0 0.00 0.00 0.00 70 814.3
20260506083638 51 239 3.0 6.0 0.00 0.00 0.00 68 814.2
20260506083528 52 273 3.0 6.0 0.00 0.00 0.00 68 814.3
20260506083308 52 307 1.0 3.0 0.00 0.00 0.00 68 814.2
20260506083158 52 207 3.0 5.0 0.00 0.00 0.00 68 814.2
20260506083048 52 280 2.0 4.0 0.00 0.00 0.00 69 814.2
20260506082938 52 236 2.0 4.0 0.00 0.00 0.00 70 814.2
20260506082718 51 220 3.0 7.0 0.00 0.00 0.00 72 814.2
20260506082609 51 333 1.0 3.0 0.00 0.00 0.00 69 814.2
20260506082458 51 271 2.0 4.0 0.00 0.00 0.00 70 814.2
20260506082348 51 340 1.0 2.0 0.00 0.00 0.00 71 814.2
20260506082238 51 330 1.0 3.0 0.00 0.00 0.00 70 814.2
20260506082018 50 293 3.0 5.0 0.00 0.00 0.00 70 814.2
20260506081908 50 316 3.0 6.0 0.00 0.00 0.00 70 814.2
20260506081759 51 205 5.0 10.0 0.00 0.00 0.00 71 814.2
20260506081648 51 118 8.0 14.0 0.00 0.00 0.00 66 814.2
20260506081538 51 90 5.0 10.0 0.00 0.00 0.00 62 814.2
20260506081428 52 60 4.0 6.0 0.00 0.00 0.00 64 814.2
20260506081318 52 167 4.0 8.0 0.00 0.00 0.00 66 814.2
20260506081208 52 148 2.0 5.0 0.00 0.00 0.00 60 814.2
20260506080948 52 100 1.0 4.0 0.00 0.00 0.00 64 814.2
20260506080838 51 129 4.0 7.0 0.00 0.00 0.00 66 814.2
20260506080729 51 117 6.0 8.0 0.00 0.00 0.00 64 814.2
20260506080618 50 120 6.0 10.0 0.00 0.00 0.00 69 814.1
20260506080508 50 94 7.0 13.0 0.00 0.00 0.00 66 814.1
20260506080358 50 106 3.0 6.0 0.00 0.00 0.00 66 814.2
20260506080248 50 147 4.0 5.0 0.00 0.00 0.00 70 814.2
20260506080138 50 222 5.0 7.0 0.00 0.00 0.00 70 814.2
20260506073448 50 0 6.0 8.0 0.00 0.00 0.00 61 814.2
20260506073338 51 0 4.0 5.0 0.00 0.00 0.00 61 814.2
20260506073228 52 332 5.0 8.0 0.00 0.00 0.00 58 814.2
20260506073118 52 350 3.0 7.0 0.00 0.00 0.00 58 813.9
20260506072858 52 99 6.0 11.0 0.00 0.00 0.00 57 814.1
20260506072638 52 101 7.0 11.0 0.00 0.00 0.00 58 814.1
20260506072528 53 70 9.0 13.0 0.00 0.00 0.00 55 813.9
20260506072418 53 95 4.0 8.0 0.00 0.00 0.00 57 814.1
20260506072308 52 173 2.0 6.0 0.00 0.00 0.00 58 814.1
20260506072158 52 0 2.0 4.0 0.00 0.00 0.00 61 813.9
20260506071938 51 46 4.0 8.0 0.00 0.00 0.00 60 814.1
20260506071828 51 296 3.0 5.0 0.00 0.00 0.00 56 814.1
20260506071718 51 309 2.0 4.0 0.00 0.00 0.00 57 813.9
20260506071608 51 45 1.0 3.0 0.00 0.00 0.00 56 813.9
20260506071348 51 3 5.0 9.0 0.00 0.00 0.00 55 813.9
20260506071238 52 347 5.0 8.0 0.00 0.00 0.00 59 813.9
20260506071128 52 309 3.0 5.0 0.00 0.00 0.00 58 813.9
20260506071018 52 205 2.0 5.0 0.00 0.00 0.00 55 813.9
20260506070758 52 138 4.0 11.0 0.00 0.00 0.00 58 813.9
20260506070648 52 284 2.0 6.0 0.00 0.00 0.00 57 813.9
20260506070538 51 28 3.0 9.0 0.00 0.00 0.00 57 813.9
20260506070428 51 356 5.0 8.0 0.00 0.00 0.00 56 813.8
20260506070208 51 22 2.0 4.0 0.00 0.00 0.00 55 813.8
20260506062338 50 31 4.0 6.0 0.00 0.00 0.00 56 813.8
20260506062228 50 69 3.0 6.0 0.00 0.00 0.00 55 813.8
20260506062118 50 33 5.0 11.0 0.00 0.00 0.00 54 813.8
20260506062008 51 67 7.0 10.0 0.00 0.00 0.00 55 813.8
20260506061859 50 65 6.0 8.0 0.00 0.00 0.00 57 813.8
20260506061748 50 104 4.0 8.0 0.00 0.00 0.00 57 813.8
20260506061638 50 64 2.0 4.0 0.00 0.00 0.00 57 813.8
20260506061528 50 79 3.0 5.0 0.00 0.00 0.00 56 813.8
20260506061418 50 67 4.0 7.0 0.00 0.00 0.00 56 813.8
20260506061308 49 80 4.0 7.0 0.00 0.00 0.00 57 813.8
20260506061158 49 75 3.0 6.0 0.00 0.00 0.00 58 813.8
20260506061048 49 60 4.0 7.0 0.00 0.00 0.00 59 813.8
20260506060938 49 73 6.0 9.0 0.00 0.00 0.00 57 813.8
20260506060828 49 35 8.0 11.0 0.00 0.00 0.00 58 813.8
20260506060718 49 23 7.0 12.0 0.00 0.00 0.00 55 813.8
20260506060458 49 38 8.0 15.0 0.00 0.00 0.00 56 813.7
20260506060348 49 80 7.0 11.0 0.00 0.00 0.00 57 813.8
20260506060238 49 49 5.0 9.0 0.00 0.00 0.00 58 813.7
20260506060128 49 16 8.0 12.0 0.00 0.00 0.00 57 813.7
20260506051338 47 29 11.0 14.0 0.00 0.00 0.00 58 813.4
20260506051228 47 24 10.0 14.0 0.00 0.00 0.00 60 813.4
20260506051118 47 18 10.0 11.0 0.00 0.00 0.00 60 813.4
20260506050859 47 14 10.0 13.0 0.00 0.00 0.00 60 813.4
20260506050748 47 15 11.0 12.0 0.00 0.00 0.00 62 813.4
20260506050638 47 15 11.0 13.0 0.00 0.00 0.00 60 813.4
20260506050419 46 12 13.0 14.0 0.00 0.00 0.00 61 813.4
20260506050200 46 12 12.0 14.0 0.00 0.00 0.00 60 813.3
20260506045129 46 9 13.0 15.0 0.00 0.00 0.00 61 813.3
20260506045018 46 8 13.0 15.0 0.00 0.00 0.00 61 813.3
20260506044539 46 5 15.0 18.0 0.00 0.00 0.00 61 813.3
20260506044429 46 3 14.0 16.0 0.00 0.00 0.00 62 813.1
20260506044318 46 9 13.0 15.0 0.00 0.00 0.00 61 813.3
20260506044209 46 9 13.0 15.0 0.00 0.00 0.00 61 813.1
20260506041738 46 0 14.0 16.0 0.00 0.00 0.00 60 813.1
20260506041632 46 0 14.0 17.0 0.00 0.00 0.00 60 813.0
20260506041520 46 1 17.0 19.0 0.00 0.00 0.00 60 813.0
20260506041408 46 4 15.0 20.0 0.00 0.00 0.00 60 813.0
20260506041258 46 3 14.0 16.0 0.00 0.00 0.00 60 813.0
20260506041148 46 6 14.0 16.0 0.00 0.00 0.00 60 813.0
20260506041038 46 6 15.0 17.0 0.00 0.00 0.00 60 813.0
20260506040928 46 2 14.0 16.0 0.00 0.00 0.00 60 813.0
20260506040818 46 0 14.0 17.0 0.00 0.00 0.00 60 813.0
20260506040708 46 1 14.0 16.0 0.00 0.00 0.00 60 813.0
20260506040558 46 1 14.0 16.0 0.00 0.00 0.00 60 813.0
20260506040449 46 0 12.0 15.0 0.00 0.00 0.00 60 813.0
20260506040338 46 357 13.0 15.0 0.00 0.00 0.00 60 813.0
20260506040118 46 356 12.0 14.0 0.00 0.00 0.00 60 813.0
20260506040008 46 355 12.0 14.0 0.00 0.00 0.00 60 813.0
20260506035748 46 358 13.0 15.0 0.00 0.00 0.00 59 813.0
20260506035638 46 357 13.0 15.0 0.00 0.00 0.00 59 813.0
20260506035418 46 353 13.0 16.0 0.00 0.00 0.00 59 813.0
20260506035308 46 354 12.0 15.0 0.00 0.00 0.00 59 813.0
20260506035158 46 351 13.0 15.0 0.00 0.00 0.00 59 813.0
20260506035048 46 352 12.0 14.0 0.00 0.00 0.00 59 813.0
20260506034938 46 354 12.0 14.0 0.00 0.00 0.00 59 813.0
20260506034828 46 353 12.0 13.0 0.00 0.00 0.00 59 813.0
20260506034718 46 353 12.0 15.0 0.00 0.00 0.00 59 813.0
20260506034608 46 351 13.0 15.0 0.00 0.00 0.00 59 813.0
20260506034348 46 356 12.0 14.0 0.00 0.00 0.00 59 813.0
20260506034238 46 354 12.0 14.0 0.00 0.00 0.00 59 813.0
20260506034018 46 356 13.0 15.0 0.00 0.00 0.00 59 813.0
20260506033908 46 356 14.0 16.0 0.00 0.00 0.00 59 812.9
20260506033758 46 357 12.0 15.0 0.00 0.00 0.00 59 813.0
20260506033648 46 354 15.0 16.0 0.00 0.00 0.00 59 812.9
20260506033538 46 358 13.0 16.0 0.00 0.00 0.00 60 813.0
20260506033428 46 358 15.0 17.0 0.00 0.00 0.00 59 813.0
20260506033318 46 357 15.0 17.0 0.00 0.00 0.00 59 813.0
20260506033208 46 0 15.0 17.0 0.00 0.00 0.00 59 813.0
20260506033058 46 356 15.0 18.0 0.00 0.00 0.00 59 812.9
20260506032728 46 1 14.0 16.0 0.00 0.00 0.00 60 813.0
20260506032618 46 3 14.0 15.0 0.00 0.00 0.00 60 813.0
20260506032508 46 2 14.0 16.0 0.00 0.00 0.00 60 812.9
20260506032358 46 0 12.0 14.0 0.00 0.00 0.00 60 812.9
20260506032248 46 356 13.0 15.0 0.00 0.00 0.00 60 813.0
20260506032138 46 356 13.0 16.0 0.00 0.00 0.00 60 812.9
20260506032028 46 0 12.0 15.0 0.00 0.00 0.00 60 812.9
20260506031808 46 358 12.0 13.0 0.00 0.00 0.00 59 812.9
20260506031658 46 355 12.0 15.0 0.00 0.00 0.00 59 812.9
20260506031438 46 357 12.0 15.0 0.00 0.00 0.00 59 812.9
20260506031328 46 357 13.0 15.0 0.00 0.00 0.00 60 812.9
20260506031218 46 0 13.0 15.0 0.00 0.00 0.00 60 812.7
20260506030848 46 1 12.0 14.0 0.00 0.00 0.00 60 812.9
20260506030738 46 1 12.0 13.0 0.00 0.00 0.00 60 812.9
20260506030628 46 0 13.0 15.0 0.00 0.00 0.00 60 812.9
20260506030518 46 356 12.0 14.0 0.00 0.00 0.00 60 812.9
20260506030408 46 0 12.0 14.0 0.00 0.00 0.00 60 812.9
20260506030148 46 1 12.0 15.0 0.00 0.00 0.00 62 812.9
20260506025818 47 1 12.0 13.0 0.00 0.00 0.00 61 812.9
20260506025708 47 358 13.0 15.0 0.00 0.00 0.00 61 812.9
20260506025558 47 0 13.0 16.0 0.00 0.00 0.00 61 812.9
20260506025448 47 6 12.0 15.0 0.00 0.00 0.00 60 812.9
20260506025338 47 0 12.0 14.0 0.00 0.00 0.00 61 812.9
20260506025228 47 0 13.0 15.0 0.00 0.00 0.00 61 812.9
20260506025118 47 4 13.0 15.0 0.00 0.00 0.00 62 812.9
20260506025008 47 8 13.0 15.0 0.00 0.00 0.00 62 812.9
20260506024858 47 11 12.0 13.0 0.00 0.00 0.00 62 812.9
20260506024748 47 12 12.0 13.0 0.00 0.00 0.00 61 812.9
20260506024638 47 10 12.0 13.0 0.00 0.00 0.00 61 813.0
20260506024528 47 7 11.0 12.0 0.00 0.00 0.00 62 813.0
20260506024418 47 13 11.0 12.0 0.00 0.00 0.00 61 812.9
20260506024308 47 7 10.0 11.0 0.00 0.00 0.00 60 812.9
20260506024158 47 8 12.0 12.0 0.00 0.00 0.00 62 812.9
20260506024048 47 12 10.0 12.0 0.00 0.00 0.00 61 812.9
20260506023828 47 11 11.0 12.0 0.00 0.00 0.00 61 812.9
20260506023718 47 8 12.0 12.0 0.00 0.00 0.00 62 812.9
20260506023608 47 11 11.0 12.0 0.00 0.00 0.00 62 812.9
20260506023458 47 11 12.0 12.0 0.00 0.00 0.00 62 812.9
20260506023238 47 11 12.0 13.0 0.00 0.00 0.00 61 812.9
20260506023128 47 12 12.0 13.0 0.00 0.00 0.00 61 812.9
20260506023018 47 9 13.0 14.0 0.00 0.00 0.00 60 812.9
20260506022758 47 6 12.0 14.0 0.00 0.00 0.00 60 812.7
20260506022648 47 4 12.0 14.0 0.00 0.00 0.00 59 812.9
20260506022538 47 1 12.0 12.0 0.00 0.00 0.00 60 812.9
20260506022428 47 1 12.0 14.0 0.00 0.00 0.00 59 812.7
20260506022318 47 1 11.0 13.0 0.00 0.00 0.00 59 812.9
20260506022208 47 0 12.0 13.0 0.00 0.00 0.00 59 812.9
20260506022102 47 4 11.0 12.0 0.00 0.00 0.00 59 812.9
20260506021948 47 4 12.0 13.0 0.00 0.00 0.00 59 812.9
20260506021729 47 1 12.0 13.0 0.00 0.00 0.00 59 812.9
20260506021618 47 2 11.0 13.0 0.00 0.00 0.00 59 812.9
20260506021508 47 2 11.0 12.0 0.00 0.00 0.00 58 812.9
20260506021358 47 2 11.0 12.0 0.00 0.00 0.00 59 812.9
20260506021248 47 1 11.0 12.0 0.00 0.00 0.00 58 812.9
20260506021138 47 0 11.0 12.0 0.00 0.00 0.00 58 812.9
20260506021028 47 357 11.0 12.0 0.00 0.00 0.00 58 812.7
20260506020919 47 356 11.0 13.0 0.00 0.00 0.00 58 812.7
20260506020808 47 354 11.0 12.0 0.00 0.00 0.00 58 812.7
20260506020548 47 355 11.0 12.0 0.00 0.00 0.00 58 812.9
20260506020439 47 355 11.0 12.0 0.00 0.00 0.00 57 812.7
20260506020218 47 357 10.0 11.0 0.00 0.00 0.00 57 812.7
20260506020108 47 0 10.0 11.0 0.00 0.00 0.00 57 812.9
20260506015958 47 1 10.0 11.0 0.00 0.00 0.00 57 812.9
20260506015848 47 0 11.0 11.0 0.00 0.00 0.00 57 812.9
20260506015738 47 0 10.0 11.0 0.00 0.00 0.00 57 812.9
20260506015628 47 357 10.0 11.0 0.00 0.00 0.00 57 812.7
20260506015518 47 356 10.0 11.0 0.00 0.00 0.00 57 812.9
20260506015408 47 354 9.0 10.0 0.00 0.00 0.00 56 812.7
20260506015258 47 350 11.0 12.0 0.00 0.00 0.00 56 812.7
20260506015148 47 344 10.0 11.0 0.00 0.00 0.00 56 812.9
20260506014818 48 344 10.0 12.0 0.00 0.00 0.00 56 812.9
20260506014708 48 343 10.0 12.0 0.00 0.00 0.00 56 812.7
20260506014558 48 343 10.0 12.0 0.00 0.00 0.00 56 812.7
20260506014448 48 341 10.0 11.0 0.00 0.00 0.00 55 812.7
20260506014338 48 340 10.0 11.0 0.00 0.00 0.00 55 812.9
20260506014228 48 339 9.0 10.0 0.00 0.00 0.00 55 812.7
20260506014118 48 341 9.0 10.0 0.00 0.00 0.00 55 812.7
20260506014008 48 341 9.0 10.0 0.00 0.00 0.00 55 812.9
20260506013859 48 343 9.0 10.0 0.00 0.00 0.00 55 812.9
20260506013638 48 345 9.0 10.0 0.00 0.00 0.00 55 812.9
20260506013528 48 345 9.0 10.0 0.00 0.00 0.00 55 812.7
20260506013418 48 345 9.0 10.0 0.00 0.00 0.00 55 812.7
20260506013048 48 346 9.0 9.0 0.00 0.00 0.00 55 812.7
20260506012938 48 346 8.0 9.0 0.00 0.00 0.00 55 812.9
20260506012828 48 344 8.0 9.0 0.00 0.00 0.00 55 812.9
20260506012718 48 344 9.0 9.0 0.00 0.00 0.00 55 812.9
20260506012608 48 342 8.0 9.0 0.00 0.00 0.00 55 812.9
20260506012348 48 341 8.0 8.0 0.00 0.00 0.00 55 812.9
20260506012238 48 340 8.0 8.0 0.00 0.00 0.00 55 812.9
20260506012128 48 340 8.0 8.0 0.00 0.00 0.00 55 812.9
20260506012018 48 340 8.0 8.0 0.00 0.00 0.00 55 812.9
20260506011911 48 342 8.0 8.0 0.00 0.00 0.00 55 812.9
20260506011758 48 343 8.0 9.0 0.00 0.00 0.00 55 812.9
20260506011538 48 343 8.0 8.0 0.00 0.00 0.00 55 812.9
20260506011428 48 345 8.0 8.0 0.00 0.00 0.00 55 812.9
20260506011318 48 345 8.0 8.0 0.00 0.00 0.00 55 813.0
20260506011208 48 343 8.0 8.0 0.00 0.00 0.00 55 813.0
20260506011057 48 342 7.0 8.0 0.00 0.00 0.00 55 812.9
20260506010948 48 343 7.0 7.0 0.00 0.00 0.00 55 812.9
20260506010838 48 344 7.0 7.0 0.00 0.00 0.00 55 812.9
20260506010728 48 344 7.0 7.0 0.00 0.00 0.00 55 813.0
20260506010618 48 342 7.0 7.0 0.00 0.00 0.00 55 813.0
20260506010358 48 340 7.0 7.0 0.00 0.00 0.00 55 812.9
20260506010248 48 341 7.0 7.0 0.00 0.00 0.00 55 812.9
20260506010028 48 341 7.0 7.0 0.00 0.00 0.00 56 813.0
20260506005918 48 341 7.0 7.0 0.00 0.00 0.00 56 813.0
20260506005807 48 343 7.0 7.0 0.00 0.00 0.00 56 813.0
20260506005658 48 343 7.0 7.0 0.00 0.00 0.00 56 813.0
20260506005328 48 345 8.0 8.0 0.00 0.00 0.00 55 813.0
20260506005218 48 345 8.0 8.0 0.00 0.00 0.00 55 813.0
20260506005108 48 348 7.0 8.0 0.00 0.00 0.00 55 813.0
20260506004957 48 350 7.0 8.0 0.00 0.00 0.00 55 812.9
20260506004847 48 352 7.0 8.0 0.00 0.00 0.00 55 812.9
20260506004738 48 353 7.0 8.0 0.00 0.00 0.00 55 812.9
20260506004628 48 354 7.0 8.0 0.00 0.00 0.00 56 812.9
20260506004517 48 357 7.0 8.0 0.00 0.00 0.00 55 813.0
20260506004408 48 0 8.0 8.0 0.00 0.00 0.00 56 812.9
20260506004257 48 3 8.0 8.0 0.00 0.00 0.00 55 812.9
20260506004147 48 4 8.0 8.0 0.00 0.00 0.00 55 812.9
20260506004037 48 4 8.0 8.0 0.00 0.00 0.00 55 812.9
20260506003927 48 4 8.0 8.0 0.00 0.00 0.00 55 812.9
20260506003558 48 2 8.0 8.0 0.00 0.00 0.00 54 813.0
20260506003338 48 1 8.0 8.0 0.00 0.00 0.00 54 813.0
20260506003118 48 3 8.0 8.0 0.00 0.00 0.00 54 812.9
20260506003007 48 5 7.0 8.0 0.00 0.00 0.00 54 812.9
20260506002857 48 7 7.0 8.0 0.00 0.00 0.00 55 812.9
20260506002638 48 11 7.0 8.0 0.00 0.00 0.00 55 813.0
20260506002527 48 12 7.0 7.0 0.00 0.00 0.00 55 812.9
20260506002308 48 15 7.0 7.0 0.00 0.00 0.00 55 813.0
20260506002047 48 17 7.0 7.0 0.00 0.00 0.00 55 813.0
20260506001937 48 20 6.0 7.0 0.00 0.00 0.00 56 812.9
20260506001827 48 21 6.0 7.0 0.00 0.00 0.00 56 813.0
20260506001717 48 23 6.0 6.0 0.00 0.00 0.00 56 813.0
20260506001607 48 24 6.0 6.0 0.00 0.00 0.00 56 813.0
20260506001457 48 26 6.0 6.0 0.00 0.00 0.00 56 813.0
20260506001347 48 29 6.0 6.0 0.00 0.00 0.00 56 813.0
20260506001237 48 31 6.0 6.0 0.00 0.00 0.00 56 813.0
20260506001017 48 33 6.0 6.0 0.00 0.00 0.00 56 813.0
20260506000907 48 33 6.0 6.0 0.00 0.00 0.00 56 813.0
20260506000757 48 34 6.0 6.0 0.00 0.00 0.00 56 813.0
20260506000647 48 34 6.0 6.0 0.00 0.00 0.00 56 813.0
20260506000537 48 35 6.0 6.0 0.00 0.00 0.00 56 813.0
20260506000317 48 37 6.0 6.0 0.00 0.00 0.00 56 813.0
20260506000207 48 37 6.0 6.0 0.00 0.00 0.00 56 813.0
20260505235837 48 35 6.0 6.0 0.00 0.00 0.00 57 813.0
20260505235728 48 37 6.0 6.0 0.00 0.00 0.00 57 813.0
20260505235617 48 40 6.0 6.0 0.00 0.00 0.00 57 813.0
20260505235507 48 39 6.0 6.0 0.00 0.00 0.00 57 813.0
20260505235357 48 40 6.0 7.0 0.00 0.00 0.00 57 813.0
20260505235137 48 40 6.0 6.0 0.00 0.00 0.00 57 813.0
20260505235027 48 40 6.0 7.0 0.00 0.00 0.00 57 813.0
20260505234917 48 39 7.0 8.0 0.00 0.00 0.00 57 813.0
20260505234807 48 40 7.0 8.0 0.00 0.00 0.00 58 813.0
20260505234657 48 38 7.0 8.0 0.00 0.00 0.00 57 813.0
20260505234547 48 38 7.0 8.0 0.00 0.00 0.00 57 813.0
20260505234437 48 40 7.0 8.0 0.00 0.00 0.00 57 813.0
20260505234327 48 41 7.0 8.0 0.00 0.00 0.00 57 813.0
20260505234217 48 40 7.0 8.0 0.00 0.00 0.00 58 813.0
20260505234108 48 39 7.0 8.0 0.00 0.00 0.00 58 813.0
20260505233957 48 38 7.0 8.0 0.00 0.00 0.00 58 813.0
20260505233847 48 37 7.0 8.0 0.00 0.00 0.00 58 813.0
20260505233737 48 35 7.0 8.0 0.00 0.00 0.00 58 813.0
20260505233517 48 31 7.0 8.0 0.00 0.00 0.00 58 813.0
20260505233407 48 28 7.0 8.0 0.00 0.00 0.00 58 813.0
20260505233257 48 28 7.0 8.0 0.00 0.00 0.00 58 813.0
20260505233147 48 29 7.0 8.0 0.00 0.00 0.00 58 813.0
20260505233037 48 31 7.0 8.0 0.00 0.00 0.00 58 813.0
20260505232927 48 32 7.0 8.0 0.00 0.00 0.00 57 813.0
20260505232817 48 28 7.0 8.0 0.00 0.00 0.00 57 813.0
20260505232707 48 30 7.0 8.0 0.00 0.00 0.00 57 813.0
20260505232447 48 29 7.0 8.0 0.00 0.00 0.00 57 813.0
20260505232337 48 27 7.0 8.0 0.00 0.00 0.00 57 813.0
20260505232227 48 24 6.0 8.0 0.00 0.00 0.00 57 813.0
20260505232007 48 24 7.0 8.0 0.00 0.00 0.00 57 813.1
20260505231857 48 24 7.0 8.0 0.00 0.00 0.00 57 813.0
20260505231637 48 22 8.0 9.0 0.00 0.00 0.00 57 813.1
20260505231417 48 18 8.0 9.0 0.00 0.00 0.00 56 813.3
20260505231307 48 20 8.0 9.0 0.00 0.00 0.00 56 813.3
20260505231157 48 13 8.0 9.0 0.00 0.00 0.00 56 813.3
20260505231047 48 13 8.0 9.0 0.00 0.00 0.00 56 813.3
20260505230937 48 13 8.0 9.0 0.00 0.00 0.00 56 813.1
20260505230827 48 10 8.0 8.0 0.00 0.00 0.00 56 813.3
20260505230717 48 10 8.0 9.0 0.00 0.00 0.00 55 813.3
20260505230607 48 9 8.0 9.0 0.00 0.00 0.00 56 813.3
20260505230347 48 357 8.0 9.0 0.00 0.00 0.00 56 813.3
20260505230237 48 358 7.0 8.0 0.00 0.00 0.00 55 813.3
20260505225907 48 342 6.0 7.0 0.00 0.00 0.00 55 813.3
20260505225757 48 335 6.0 7.0 0.00 0.00 0.00 55 813.3
20260505225647 48 330 5.0 6.0 0.00 0.00 0.00 55 813.3
20260505225537 48 330 5.0 5.0 0.00 0.00 0.00 56 813.3
20260505225427 48 328 5.0 6.0 0.00 0.00 0.00 56 813.3
20260505225207 48 311 5.0 6.0 0.00 0.00 0.00 56 813.4
20260505225057 48 317 3.0 4.0 0.00 0.00 0.00 56 813.4
20260505224727 47 307 5.0 6.0 0.00 0.00 0.00 56 813.4
20260505224617 47 327 3.0 6.0 0.00 0.00 0.00 57 813.4
20260505224507 47 336 3.0 4.0 0.00 0.00 0.00 57 813.4
20260505224357 48 327 3.0 4.0 0.00 0.00 0.00 57 813.4
20260505224247 48 335 3.0 5.0 0.00 0.00 0.00 57 813.4
20260505224137 48 314 3.0 4.0 0.00 0.00 0.00 57 813.4
20260505224027 48 305 4.0 5.0 0.00 0.00 0.00 56 813.4
20260505223917 48 294 4.0 4.0 0.00 0.00 0.00 57 813.4
20260505223807 48 288 4.0 5.0 0.00 0.00 0.00 56 813.4
20260505223657 48 294 5.0 6.0 0.00 0.00 0.00 56 813.4
20260505223547 48 294 6.0 7.0 0.00 0.00 0.00 56 813.4
20260505223437 48 298 6.0 7.0 0.00 0.00 0.00 57 813.4
20260505223327 48 289 4.0 6.0 0.00 0.00 0.00 58 813.4
20260505223107 48 282 5.0 6.0 0.00 0.00 0.00 57 813.4
20260505222957 48 285 5.0 6.0 0.00 0.00 0.00 57 813.4
20260505222847 48 280 6.0 7.0 0.00 0.00 0.00 57 813.4
20260505222737 48 287 6.0 7.0 0.00 0.00 0.00 57 813.4
20260505222517 48 289 5.0 6.0 0.00 0.00 0.00 58 813.4
20260505222407 48 287 4.0 5.0 0.00 0.00 0.00 58 813.4
20260505222257 48 288 4.0 5.0 0.00 0.00 0.00 58 813.4
20260505222147 48 287 3.0 4.0 0.00 0.00 0.00 58 813.4
20260505222037 48 296 4.0 5.0 0.00 0.00 0.00 58 813.4
20260505221927 48 292 4.0 5.0 0.00 0.00 0.00 57 813.4
20260505221817 48 307 4.0 5.0 0.00 0.00 0.00 57 813.4
20260505221707 48 295 5.0 6.0 0.00 0.00 0.00 57 813.4
20260505221557 48 304 4.0 6.0 0.00 0.00 0.00 57 813.4
20260505221337 48 303 5.0 6.0 0.00 0.00 0.00 57 813.4
20260505221227 48 304 5.0 6.0 0.00 0.00 0.00 57 813.4
20260505221117 48 307 6.0 7.0 0.00 0.00 0.00 57 813.4
20260505221007 48 300 5.0 6.0 0.00 0.00 0.00 58 813.4
20260505220857 48 293 6.0 6.0 0.00 0.00 0.00 58 813.4
20260505220747 48 308 6.0 8.0 0.00 0.00 0.00 57 813.4
20260505220527 48 305 5.0 6.0 0.00 0.00 0.00 58 813.4
20260505220417 48 292 4.0 5.0 0.00 0.00 0.00 58 813.4
20260505220157 48 284 4.0 5.0 0.00 0.00 0.00 58 813.4
20260505220047 48 283 5.0 6.0 0.00 0.00 0.00 58 813.4
20260505215937 48 282 5.0 6.0 0.00 0.00 0.00 57 813.4
20260505215717 48 302 7.0 8.0 0.00 0.00 0.00 58 813.4
20260505215607 48 293 7.0 8.0 0.00 0.00 0.00 58 813.4
20260505215457 48 289 7.0 8.0 0.00 0.00 0.00 58 813.4
20260505215347 48 285 7.0 8.0 0.00 0.00 0.00 58 813.4
20260505215237 48 283 8.0 8.0 0.00 0.00 0.00 59 813.4
20260505215127 47 284 8.0 8.0 0.00 0.00 0.00 60 813.4
20260505215017 47 281 7.0 8.0 0.00 0.00 0.00 60 813.4
20260505214907 47 282 8.0 9.0 0.00 0.00 0.00 61 813.4
20260505214757 47 280 7.0 8.0 0.00 0.00 0.00 61 813.4
20260505214647 47 278 6.0 8.0 0.00 0.00 0.00 62 813.4
20260505214537 47 277 7.0 9.0 0.00 0.00 0.00 62 813.5
20260505214427 47 272 6.0 7.0 0.00 0.00 0.00 62 813.5
20260505214317 47 269 6.0 7.0 0.00 0.00 0.00 62 813.5
20260505214207 47 270 6.0 8.0 0.00 0.00 0.00 62 813.5
20260505214057 47 269 7.0 8.0 0.00 0.00 0.00 63 813.4
20260505213947 47 269 7.0 9.0 0.00 0.00 0.00 63 813.5
20260505213837 47 277 6.0 8.0 0.00 0.00 0.00 63 813.5
20260505213617 47 259 8.0 9.0 0.00 0.00 0.00 63 813.4
20260505213507 47 266 6.0 8.0 0.00 0.00 0.00 63 813.5
20260505213137 47 262 5.0 6.0 0.00 0.00 0.00 62 813.5
20260505213027 47 264 7.0 9.0 0.00 0.00 0.00 62 813.5
20260505212807 47 255 6.0 6.0 0.00 0.00 0.00 62 813.4
20260505212657 47 261 7.0 8.0 0.00 0.00 0.00 62 813.4
20260505212547 47 254 6.0 9.0 0.00 0.00 0.00 63 813.5
20260505212437 47 242 5.0 5.0 0.00 0.00 0.00 63 813.5
20260505212327 47 247 5.0 6.0 0.00 0.00 0.00 63 813.5
20260505212217 47 240 4.0 5.0 0.00 0.00 0.00 63 813.5
20260505212107 47 239 4.0 4.0 0.00 0.00 0.00 63 813.5
20260505211957 47 224 4.0 4.0 0.00 0.00 0.00 63 813.5
20260505211847 47 205 4.0 4.0 0.00 0.00 0.00 63 813.5
20260505211737 47 220 4.0 4.0 0.00 0.00 0.00 63 813.5
20260505211627 47 214 3.0 3.0 0.00 0.00 0.00 63 813.5
20260505211517 47 211 3.0 3.0 0.00 0.00 0.00 63 813.5
20260505211407 47 217 4.0 4.0 0.00 0.00 0.00 64 813.5
20260505211257 47 234 4.0 4.0 0.00 0.00 0.00 64 813.5
20260505211147 47 228 4.0 4.0 0.00 0.00 0.00 63 813.5
20260505210817 47 211 4.0 5.0 0.00 0.00 0.00 63 813.5
20260505210707 47 201 4.0 4.0 0.00 0.00 0.00 62 813.5
20260505210337 48 211 3.0 3.0 0.00 0.00 0.00 61 813.5
20260505210227 48 266 2.0 3.0 0.00 0.00 0.00 56 813.5
20260505210117 48 289 2.0 2.0 0.00 0.00 0.00 56 813.5
20260505210007 48 308 2.0 2.0 0.00 0.00 0.00 56 813.5
20260505205857 48 305 3.0 4.0 0.00 0.00 0.00 56 813.5
20260505205747 48 296 2.0 4.0 0.00 0.00 0.00 56 813.5
20260505205637 48 310 3.0 5.0 0.00 0.00 0.00 55 813.5
20260505205527 47 264 3.0 5.0 0.00 0.00 0.00 56 813.5
20260505205417 47 281 2.0 4.0 0.00 0.00 0.00 57 813.5
20260505205307 47 255 4.0 5.0 0.00 0.00 0.00 58 813.7
20260505205157 47 257 3.0 6.0 0.00 0.00 0.00 57 813.5
20260505205047 47 310 2.0 4.0 0.00 0.00 0.00 57 813.5
20260505204827 47 261 3.0 5.0 0.00 0.00 0.00 62 813.5
20260505204717 47 212 5.0 5.0 0.00 0.00 0.00 63 813.7
20260505204457 47 199 4.0 5.0 0.00 0.00 0.00 63 813.7
20260505204347 47 188 5.0 5.0 0.00 0.00 0.00 64 813.7
20260505204237 47 197 5.0 6.0 0.00 0.00 0.00 65 813.5
20260505204127 47 196 5.0 5.0 0.00 0.00 0.00 66 813.5
20260505204017 47 197 5.0 6.0 0.00 0.00 0.00 66 813.5
20260505203757 47 176 5.0 6.0 0.00 0.00 0.00 64 813.7
20260505203647 47 192 6.0 7.0 0.00 0.00 0.00 64 813.7
20260505203427 47 195 6.0 7.0 0.00 0.00 0.00 65 813.7
20260505203317 47 206 6.0 7.0 0.00 0.00 0.00 63 813.7
20260505203207 47 200 6.0 7.0 0.00 0.00 0.00 62 813.7
20260505203057 47 206 6.0 6.0 0.00 0.00 0.00 63 813.7
20260505202947 47 207 6.0 7.0 0.00 0.00 0.00 62 813.8
20260505202837 47 209 6.0 7.0 0.00 0.00 0.00 62 813.8
20260505202727 47 202 6.0 6.0 0.00 0.00 0.00 61 813.8
20260505202617 47 203 6.0 7.0 0.00 0.00 0.00 59 813.8
20260505202507 47 200 6.0 6.0 0.00 0.00 0.00 57 813.7
20260505202357 47 199 5.0 6.0 0.00 0.00 0.00 57 813.8
20260505202247 47 204 6.0 6.0 0.00 0.00 0.00 56 813.7
20260505202137 47 204 5.0 6.0 0.00 0.00 0.00 56 813.7
20260505202027 47 207 6.0 6.0 0.00 0.00 0.00 56 813.7
20260505201807 47 217 6.0 7.0 0.00 0.00 0.00 55 813.7
20260505201657 47 217 5.0 6.0 0.00 0.00 0.00 55 813.8
20260505201547 47 219 5.0 6.0 0.00 0.00 0.00 54 813.7
20260505201437 47 221 5.0 6.0 0.00 0.00 0.00 54 813.7
20260505201107 47 243 5.0 6.0 0.00 0.00 0.00 57 813.7
20260505200957 47 229 4.0 5.0 0.00 0.00 0.00 58 813.7
20260505200737 47 215 5.0 5.0 0.00 0.00 0.00 58 813.5
20260505200627 47 224 5.0 6.0 0.00 0.00 0.00 58 813.7
20260505200517 47 234 5.0 5.0 0.00 0.00 0.00 57 813.5
20260505200407 47 238 6.0 6.0 0.00 0.00 0.00 58 813.7
20260505200257 47 243 6.0 6.0 0.00 0.00 0.00 59 813.7
20260505200147 47 231 5.0 6.0 0.00 0.00 0.00 59 813.7
20260505200037 47 242 5.0 5.0 0.00 0.00 0.00 60 813.5
20260505195927 47 246 4.0 4.0 0.00 0.00 0.00 59 813.5
20260505195816 47 241 4.0 4.0 0.00 0.00 0.00 59 813.5
20260505195707 47 237 4.0 4.0 0.00 0.00 0.00 59 813.7
20260505195557 47 247 4.0 4.0 0.00 0.00 0.00 59 813.5
20260505195337 47 254 4.0 4.0 0.00 0.00 0.00 59 813.5
20260505195116 47 260 4.0 5.0 0.00 0.00 0.00 59 813.5
20260505195007 47 264 4.0 5.0 0.00 0.00 0.00 59 813.7
20260505194856 47 261 5.0 5.0 0.00 0.00 0.00 59 813.5
20260505194637 47 268 5.0 6.0 0.00 0.00 0.00 60 813.7
20260505194527 47 264 5.0 6.0 0.00 0.00 0.00 61 813.7
20260505194417 47 267 5.0 6.0 0.00 0.00 0.00 60 813.5
20260505194307 47 264 5.0 6.0 0.00 0.00 0.00 60 813.7
20260505194157 47 264 4.0 5.0 0.00 0.00 0.00 60 813.5
20260505193937 47 261 5.0 5.0 0.00 0.00 0.00 60 813.5
20260505193827 47 264 4.0 4.0 0.00 0.00 0.00 60 813.7
20260505193717 47 267 4.0 4.0 0.00 0.00 0.00 60 813.7
20260505193607 47 264 4.0 5.0 0.00 0.00 0.00 59 813.5
20260505193456 47 267 4.0 5.0 0.00 0.00 0.00 59 813.5
20260505193347 47 271 4.0 4.0 0.00 0.00 0.00 58 813.7
20260505193237 47 272 3.0 4.0 0.00 0.00 0.00 58 813.7
20260505193127 47 274 4.0 4.0 0.00 0.00 0.00 58 813.7
20260505192906 47 256 4.0 4.0 0.00 0.00 0.00 58 813.7
20260505192757 47 248 4.0 4.0 0.00 0.00 0.00 56 813.7
20260505192647 47 238 4.0 4.0 0.00 0.00 0.00 57 813.7
20260505192537 47 246 3.0 4.0 0.00 0.00 0.00 57 813.7
20260505192427 47 266 4.0 5.0 0.00 0.00 0.00 58 813.7
20260505192207 47 268 4.0 5.0 0.00 0.00 0.00 58 813.7
20260505192057 47 272 5.0 5.0 0.00 0.00 0.00 58 813.7
20260505191947 47 271 4.0 5.0 0.00 0.00 0.00 58 813.7
20260505191837 47 265 5.0 6.0 0.00 0.00 0.00 58 813.7
20260505191727 47 267 5.0 6.0 0.00 0.00 0.00 56 813.7
20260505191507 47 259 5.0 7.0 0.00 0.00 0.00 56 813.7
20260505191357 47 260 6.0 7.0 0.00 0.00 0.00 56 813.7
20260505191247 47 259 7.0 8.0 0.00 0.00 0.00 56 813.5
20260505191137 47 262 7.0 7.0 0.00 0.00 0.00 56 813.7
20260505191027 46 260 6.0 7.0 0.00 0.00 0.00 57 813.5
20260505190916 46 263 7.0 7.0 0.00 0.00 0.00 57 813.7
20260505190807 46 263 7.0 8.0 0.00 0.00 0.00 58 813.5
20260505190657 46 262 7.0 8.0 0.00 0.00 0.00 58 813.5
20260505190548 46 261 7.0 8.0 0.00 0.00 0.00 58 813.5
20260505190437 46 261 8.0 9.0 0.00 0.00 0.00 59 813.5
20260505190329 46 259 8.0 9.0 0.00 0.00 0.00 59 813.5
20260505190107 46 254 8.0 10.0 0.00 0.00 0.00 56 813.5
20260505185957 46 259 9.0 10.0 0.00 0.00 0.00 56 813.5
20260505185848 47 255 8.0 10.0 0.00 0.00 0.00 56 813.5
20260505185738 46 255 8.0 9.0 0.00 0.00 0.00 56 813.5
20260505185627 46 257 10.0 10.0 0.00 0.00 0.00 58 813.5
20260505185517 46 259 10.0 11.0 0.00 0.00 0.00 57 813.5
20260505185407 46 257 9.0 11.0 0.00 0.00 0.00 57 813.5
20260505185257 46 254 8.0 10.0 0.00 0.00 0.00 57 813.5
20260505185147 46 260 8.0 10.0 0.00 0.00 0.00 57 813.5
20260505185036 46 260 9.0 10.0 0.00 0.00 0.00 57 813.4
20260505184817 46 256 9.0 10.0 0.00 0.00 0.00 56 813.5
20260505184707 46 254 9.0 10.0 0.00 0.00 0.00 56 813.4
20260505184557 46 256 10.0 11.0 0.00 0.00 0.00 56 813.5
20260505184447 46 251 9.0 11.0 0.00 0.00 0.00 56 813.5
20260505184337 46 253 8.0 9.0 0.00 0.00 0.00 56 813.5
20260505184227 46 250 8.0 9.0 0.00 0.00 0.00 57 813.4
20260505184007 46 257 6.0 8.0 0.00 0.00 0.00 60 813.5
20260505183857 46 242 7.0 8.0 0.00 0.00 0.00 58 813.5
20260505183746 46 241 8.0 9.0 0.00 0.00 0.00 56 813.4
20260505183637 46 247 8.0 9.0 0.00 0.00 0.00 57 813.5
20260505183527 46 239 7.0 8.0 0.00 0.00 0.00 56 813.5
20260505183417 46 250 8.0 8.0 0.00 0.00 0.00 56 813.5
20260505183307 46 239 7.0 8.0 0.00 0.00 0.00 56 813.5
20260505183157 46 240 8.0 9.0 0.00 0.00 0.00 56 813.5
20260505183047 46 233 7.0 8.0 0.00 0.00 0.00 56 813.5
20260505182827 46 233 6.0 7.0 0.00 0.00 0.00 56 813.5
20260505182716 46 233 7.0 8.0 0.00 0.00 0.00 58 813.5
20260505182606 46 223 6.0 7.0 0.00 0.00 0.00 58 813.5
20260505182456 46 228 6.0 6.0 0.00 0.00 0.00 60 813.4
20260505182237 46 226 7.0 8.0 0.00 0.00 0.00 60 813.4
20260505182126 47 222 7.0 8.0 0.00 0.00 0.00 61 813.4
20260505182017 47 213 7.0 8.0 0.00 0.00 0.00 61 813.5
20260505181906 47 227 6.0 7.0 0.00 0.00 0.00 62 813.4
20260505181647 47 263 7.0 9.0 0.00 0.00 0.00 56 813.4
20260505181537 48 252 6.0 8.0 0.00 0.00 0.00 56 813.4
20260505181427 48 267 6.0 7.0 0.00 0.00 0.00 56 813.5
20260505181317 47 284 8.0 10.0 0.00 0.00 0.00 56 813.4
20260505180949 47 281 7.0 8.0 0.00 0.00 0.00 57 813.4
20260505180617 47 256 5.0 7.0 0.00 0.00 0.00 61 813.4
20260505180507 47 222 4.0 5.0 0.00 0.00 0.00 61 813.5
20260505180356 47 243 4.0 7.0 0.00 0.00 0.00 59 813.4
20260505180249 47 278 4.0 5.0 0.00 0.00 0.00 58 813.4
20260505180137 47 303 4.0 5.0 0.00 0.00 0.00 58 813.4
20260505180027 46 301 6.0 8.0 0.00 0.00 0.00 58 813.4
20260505175920 46 291 6.0 7.0 0.00 0.00 0.00 59 813.4
20260505175806 45 289 6.0 7.0 0.00 0.00 0.00 60 813.4
20260505175656 45 289 5.0 6.0 0.00 0.00 0.00 61 813.4
20260505175437 45 202 5.0 6.0 0.00 0.00 0.00 70 813.4
20260505175326 45 205 6.0 7.0 0.00 0.00 0.00 70 813.4
20260505175217 45 221 7.0 8.0 0.00 0.00 0.00 70 813.4
20260505175106 45 234 7.0 8.0 0.00 0.00 0.00 68 813.4
20260505174956 45 233 6.0 7.0 0.00 0.00 0.00 64 813.4
20260505174847 45 197 5.0 6.0 0.00 0.00 0.00 63 813.4
20260505174738 45 185 5.0 6.0 0.00 0.00 0.00 64 813.4
20260505174627 45 183 4.0 6.0 0.00 0.00 0.00 65 813.3
20260505174517 45 198 4.0 5.0 0.00 0.00 0.00 64 813.3
20260505174406 45 199 5.0 6.0 0.00 0.00 0.00 65 813.3
20260505174257 45 208 5.0 6.0 0.00 0.00 0.00 66 813.3
20260505174147 44 190 6.0 7.0 0.00 0.00 0.00 65 813.4
20260505173817 44 207 6.0 6.0 0.00 0.00 0.00 67 813.4
20260505173707 44 200 6.0 7.0 0.00 0.00 0.00 68 813.4
20260505173556 44 219 6.0 7.0 0.00 0.00 0.00 67 813.4
20260505173447 44 228 6.0 8.0 0.00 0.00 0.00 68 813.4
20260505173337 44 225 6.0 7.0 0.00 0.00 0.00 67 813.4
20260505173227 44 233 6.0 8.0 0.00 0.00 0.00 68 813.4
20260505173116 44 238 7.0 9.0 0.00 0.00 0.00 68 813.4
20260505173006 44 243 6.0 8.0 0.00 0.00 0.00 65 813.3
20260505172857 44 238 7.0 8.0 0.00 0.00 0.00 66 813.4
20260505172747 44 262 7.0 9.0 0.00 0.00 0.00 66 813.4
20260505172637 44 267 7.0 9.0 0.00 0.00 0.00 69 813.4
20260505172307 44 243 6.0 8.0 0.00 0.00 0.00 66 813.3
20260505172157 44 254 9.0 12.0 0.00 0.00 0.00 66 813.3
20260505172046 45 253 10.0 13.0 0.00 0.00 0.00 72 813.3
20260505171936 45 247 6.0 8.0 0.00 0.00 0.00 72 813.3
20260505171827 44 247 6.0 8.0 0.00 0.00 0.00 69 813.4
20260505171717 44 251 5.0 6.0 0.00 0.00 0.00 70 813.4
20260505171457 44 209 5.0 14.0 0.00 0.00 0.00 68 813.4
20260505171347 44 185 6.0 12.0 0.00 0.00 0.00 66 813.4
20260505171236 44 153 10.0 16.0 0.00 0.00 0.00 66 813.4
20260505171126 44 143 18.0 25.0 0.00 0.00 0.00 74 813.4
20260505171017 44 141 22.0 91.0 0.01 0.00 0.00 77 813.4
20260505170907 44 139 13.0 21.0 0.01 0.00 0.00 76 813.5
20260505170756 44 87 17.0 21.0 0.01 0.00 0.00 79 813.7
20260505170647 44 66 19.0 23.0 0.00 0.00 0.00 80 813.5
20260505170537 44 71 21.0 25.0 0.00 0.00 0.00 84 813.4
20260505170427 45 81 16.0 21.0 0.00 0.00 0.00 82 813.5
20260505170317 45 99 12.0 16.0 0.00 0.00 0.00 80 813.5
20260505170206 45 134 11.0 14.0 0.00 0.00 0.00 78 813.5
20260505170057 45 142 12.0 15.0 0.00 0.00 0.00 78 813.4
20260505165946 45 146 14.0 16.0 0.00 0.00 0.00 80 813.4
20260505165837 45 143 14.0 16.0 0.00 0.00 0.00 82 813.4
20260505165726 46 139 12.0 15.0 0.00 0.00 0.00 79 813.4
20260505165617 47 143 10.0 12.0 0.00 0.00 0.00 79 813.4
20260505165507 47 187 3.0 6.0 0.00 0.00 0.00 78 813.4
20260505165357 47 270 3.0 4.0 0.00 0.00 0.00 80 813.4
20260505165247 47 274 4.0 6.0 0.00 0.00 0.00 80 813.4
20260505165026 46 244 5.0 7.0 0.00 0.00 0.00 79 813.4
20260505164916 46 238 5.0 7.0 0.00 0.00 0.00 78 813.3
20260505164807 46 237 6.0 8.0 0.00 0.00 0.00 84 813.4
20260505164657 46 240 6.0 7.0 0.00 0.00 0.00 84 813.4
20260505164546 46 238 6.0 7.0 0.00 0.00 0.00 87 813.4
20260505164437 46 247 6.0 7.0 0.00 0.00 0.00 86 813.3
20260505164327 46 245 6.0 8.0 0.00 0.00 0.00 83 813.3
20260505164216 46 244 7.0 9.0 0.00 0.00 0.00 87 813.3
20260505164106 46 242 7.0 9.0 0.00 0.00 0.00 87 813.3
20260505163956 46 242 6.0 8.0 0.00 0.00 0.00 87 813.3
20260505163847 46 244 7.0 8.0 0.00 0.00 0.00 86 813.3
20260505163736 46 247 7.0 10.0 0.00 0.00 0.00 88 813.3
20260505163627 46 249 6.0 9.0 0.00 0.00 0.00 89 813.3
20260505163517 46 255 6.0 8.0 0.00 0.00 0.00 88 813.3
20260505163407 46 261 7.0 10.0 0.00 0.00 0.00 90 813.3
20260505163146 46 254 7.0 10.0 0.00 0.00 0.00 87 813.3
20260505163036 46 246 8.0 10.0 0.00 0.00 0.00 87 813.3
20260505162926 46 236 7.0 9.0 0.00 0.00 0.00 86 813.1
20260505162818 46 241 7.0 10.0 0.00 0.00 0.00 90 813.1
20260505162707 46 259 7.0 9.0 0.00 0.00 0.00 90 813.3
20260505162557 46 270 6.0 9.0 0.00 0.00 0.00 90 813.3
20260505162447 46 243 6.0 9.0 0.00 0.00 0.00 85 813.3
20260505162343 46 223 6.0 8.0 0.00 0.00 0.00 84 813.3
20260505162229 46 230 6.0 9.0 0.00 0.00 0.00 88 813.3
20260505162117 46 241 6.0 8.0 0.00 0.00 0.00 89 813.3
20260505162006 46 248 6.0 8.0 0.00 0.00 0.00 89 813.3
20260505161856 46 244 7.0 10.0 0.00 0.00 0.00 91 813.3
20260505161746 46 250 8.0 11.0 0.00 0.00 0.00 90 813.3
20260505161636 46 245 8.0 10.0 0.00 0.00 0.00 90 813.3
20260505161526 45 243 7.0 10.0 0.00 0.00 0.00 88 813.3
20260505161417 46 234 8.0 12.0 0.00 0.00 0.00 90 813.3
20260505161306 46 253 9.0 12.0 0.00 0.00 0.00 91 813.3
20260505161156 46 248 9.0 12.0 0.00 0.00 0.00 91 813.3
20260505161046 46 245 9.0 12.0 0.00 0.00 0.00 90 813.1
20260505160937 46 242 8.0 13.0 0.00 0.00 0.00 89 813.1
20260505160606 46 258 6.0 11.0 0.00 0.00 0.00 89 813.3
20260505160456 46 246 7.0 10.0 0.00 0.00 0.00 90 813.3
20260505160347 45 246 8.0 11.0 0.00 0.00 0.00 88 813.1
20260505160236 45 249 8.0 11.0 0.00 0.00 0.00 89 813.3
20260505160126 45 249 8.0 10.0 0.00 0.00 0.00 90 813.3
20260505153326 46 141 1.0 4.0 0.00 0.00 0.00 65 813.4
20260505153216 46 123 4.0 5.0 0.00 0.00 0.00 66 813.3
20260505153107 45 152 5.0 7.0 0.00 0.00 0.00 66 813.3
20260505153012 45 138 4.0 6.0 0.00 0.00 0.00 67 813.3
20260505152743 46 173 2.0 3.0 0.00 0.00 0.00 67 813.4
20260505152629 46 206 2.0 3.0 0.00 0.00 0.00 68 813.4
20260505152517 46 211 4.0 5.0 0.00 0.00 0.00 67 813.4
20260505152410 46 243 4.0 7.0 0.00 0.00 0.00 62 813.4
20260505152257 46 264 5.0 10.0 0.00 0.00 0.00 60 813.5
20260505152147 46 273 4.0 6.0 0.00 0.00 0.00 60 813.5
20260505152037 46 296 5.0 8.0 0.00 0.00 0.00 59 813.7
20260505151926 46 309 7.0 101.0 0.00 0.00 0.00 58 813.8
20260505151817 46 338 43.0 148.0 0.01 0.00 0.00 58 813.8
20260505151556 46 2 13.0 25.0 0.00 0.00 0.00 68 813.7
20260505151350 47 248 22.0 142.0 0.00 0.00 0.00 77 813.8
20260505151227 47 261 5.0 8.0 0.00 0.00 0.00 75 813.8
20260505151118 47 192 9.0 15.0 0.00 0.00 0.00 76 813.8
20260505150856 47 177 8.0 12.0 0.00 0.00 0.00 76 813.8
20260505150746 47 173 17.0 100.0 0.00 0.00 0.00 76 813.7
20260505150417 47 238 4.0 8.0 0.00 0.00 0.00 77 813.5
20260505150156 47 260 6.0 10.0 0.00 0.00 0.00 76 813.4
20260505140339 52 229 5.0 7.0 0.00 0.00 0.00 64 813.7
20260505140226 53 259 6.0 12.0 0.00 0.00 0.00 69 813.7
20260505140116 53 274 8.0 12.0 0.00 0.00 0.00 68 813.7
20260505130256 49 205 4.0 7.0 0.00 0.00 0.00 71 814.1
20260505130146 49 257 3.0 8.0 0.00 0.00 0.00 71 814.2
20260505124856 52 239 4.0 12.0 0.00 0.00 0.00 62 813.9
20260505124746 52 294 10.0 16.0 0.00 0.00 0.00 63 813.9
20260505124636 53 320 10.0 14.0 0.00 0.00 0.00 61 813.9
20260505124527 53 313 9.0 13.0 0.00 0.00 0.00 62 814.2
20260505124417 53 330 7.0 10.0 0.00 0.00 0.00 59 814.2
20260505124307 53 346 6.0 12.0 0.00 0.00 0.00 54 814.2
20260505124156 53 350 4.0 8.0 0.00 0.00 0.00 48 814.2
20260505124046 53 18 4.0 8.0 0.00 0.00 0.00 42 814.2
20260505123828 52 80 6.0 10.0 0.00 0.00 0.00 45 814.2
20260505123717 52 28 5.0 8.0 0.00 0.00 0.00 45 814.2
20260505123606 52 22 6.0 12.0 0.00 0.00 0.00 40 814.2
20260505123456 52 40 10.0 13.0 0.00 0.00 0.00 42 814.2
20260505123347 51 47 9.0 13.0 0.00 0.00 0.00 45 814.2
20260505123236 51 17 10.0 15.0 0.00 0.00 0.00 43 814.2
20260505123126 51 8 12.0 19.0 0.00 0.00 0.00 43 814.1
20260505123016 52 18 10.0 18.0 0.00 0.00 0.00 43 814.1
20260505122906 52 32 11.0 19.0 0.00 0.00 0.00 46 813.9
20260505122756 51 14 8.0 11.0 0.00 0.00 0.00 44 814.1
20260505122538 51 354 9.0 16.0 0.00 0.00 0.00 45 814.1
20260505122426 52 347 15.0 22.0 0.00 0.00 0.00 44 813.8
20260505122318 52 26 12.0 21.0 0.00 0.00 0.00 43 814.1
20260505122056 52 51 9.0 17.0 0.00 0.00 0.00 42 814.1
20260505121836 52 21 6.0 12.0 0.00 0.00 0.00 42 814.1
20260505121616 51 10 10.0 17.0 0.00 0.00 0.00 42 813.9
20260505121356 51 64 9.0 13.0 0.00 0.00 0.00 44 814.2
20260505121246 51 42 9.0 16.0 0.00 0.00 0.00 46 814.2
20260505121144 51 49 15.0 18.0 0.00 0.00 0.00 44 813.9
20260505121027 51 48 15.0 20.0 0.00 0.00 0.00 44 813.8
20260505120806 51 25 15.0 24.0 0.00 0.00 0.00 44 813.9
20260505120546 50 11 4.0 8.0 0.00 0.00 0.00 45 814.2
20260505120437 50 20 10.0 17.0 0.00 0.00 0.00 45 814.2
20260505120326 51 39 17.0 21.0 0.00 0.00 0.00 46 814.1
20260505120217 51 46 17.0 20.0 0.00 0.00 0.00 46 813.9
20260505115956 51 44 12.0 17.0 0.00 0.00 0.00 46 814.2
20260505115847 51 43 10.0 14.0 0.00 0.00 0.00 46 814.2
20260505115741 51 34 10.0 16.0 0.00 0.00 0.00 47 814.2
20260505115407 51 34 10.0 17.0 0.00 0.00 0.00 45 814.2
20260505115256 51 43 10.0 13.0 0.00 0.00 0.00 44 814.2
20260505115146 51 66 12.0 19.0 0.00 0.00 0.00 44 814.2
20260505114926 51 85 16.0 22.0 0.00 0.00 0.00 46 814.1
20260505114707 51 51 18.0 22.0 0.00 0.00 0.00 45 814.1
20260505114556 51 45 21.0 26.0 0.00 0.00 0.00 44 814.1
20260505114447 51 8 11.0 20.0 0.00 0.00 0.00 46 814.2
20260505114336 51 2 14.0 21.0 0.00 0.00 0.00 44 814.2
20260505114226 51 30 15.0 18.0 0.00 0.00 0.00 44 814.2
20260505114116 51 37 10.0 21.0 0.00 0.00 0.00 43 814.2
20260505113856 51 6 12.0 17.0 0.00 0.00 0.00 45 814.2
20260505113746 50 32 11.0 15.0 0.00 0.00 0.00 45 814.2
20260505113636 50 59 11.0 16.0 0.00 0.00 0.00 46 814.2
20260505113527 50 70 9.0 17.0 0.00 0.00 0.00 43 814.3
20260505113416 50 57 13.0 16.0 0.00 0.00 0.00 46 814.2
20260505113307 50 49 15.0 21.0 0.00 0.00 0.00 45 814.2
20260505113156 50 54 15.0 20.0 0.00 0.00 0.00 46 814.2
20260505113047 50 41 14.0 18.0 0.00 0.00 0.00 46 814.2
20260505112936 50 41 16.0 26.0 0.00 0.00 0.00 46 814.2
20260505112827 51 55 16.0 21.0 0.00 0.00 0.00 46 814.2
20260505112716 51 51 17.0 24.0 0.00 0.00 0.00 48 814.2
20260505112606 51 40 12.0 17.0 0.00 0.00 0.00 47 814.2
20260505112348 51 36 13.0 21.0 0.00 0.00 0.00 47 814.2
20260505112237 51 24 16.0 23.0 0.00 0.00 0.00 46 814.1
20260505112126 51 17 10.0 18.0 0.00 0.00 0.00 46 814.2
20260505112017 51 16 12.0 22.0 0.00 0.00 0.00 46 814.2
20260505111906 50 42 14.0 19.0 0.00 0.00 0.00 47 814.2
20260505111756 50 32 12.0 21.0 0.00 0.00 0.00 46 814.2
20260505111647 50 51 7.0 11.0 0.00 0.00 0.00 46 814.2
20260505111427 50 54 6.0 13.0 0.00 0.00 0.00 42 814.2
20260505111318 50 50 10.0 17.0 0.00 0.00 0.00 44 814.2
20260505111207 50 28 15.0 21.0 0.00 0.00 0.00 44 814.2
20260505111056 50 36 16.0 21.0 0.00 0.00 0.00 44 814.2
20260505110946 50 23 14.0 20.0 0.00 0.00 0.00 44 814.2